Change the Weather History Date:

Friday, November 16, 2012

  Actual Average Record
Temperature  
Mean Temperature 39 °F 39 °F  
Max Temperature 48 °F 50 °F 66 °F (1967)
Min Temperature 29 °F 27 °F 8 °F (1955)
Degree Days  
Heating Degree Days 26 26  
Month to date heating degree days 347 360  
Since 1 July heating degree days 756 808  
Cooling Degree Days 0 0  
Month to date cooling degree days 0 0  
Year to date cooling degree days 1515 1125  
Moisture  
Dew Point 27 °F    
Average Humidity 58    
Maximum Humidity 78    
Minimum Humidity 38    
Precipitation  
Precipitation T in 0.02 in 0.41 in (1964)
Month to date precipitation 0.16 0.42  
Year to date precipitation 3.47 8.52  
Snow  
Snow 0.00 in 0.10 in 6.00 in (1964)
Month to date snowfall 2.5 0.8  
Since 1 July snowfall 2.5 1.2  
Since 1 September snowfall 2.5 1.2  
Snow Depth 0.00 in    
Sea Level Pressure  
Sea Level Pressure 30.19 in    
Wind  
Wind Speed 4 mph (NNE)    
Max Wind Speed 18 mph    
Max Gust Speed 21 mph    
Visibility 10 miles    
Events      
T = Trace of Precipitation, MM = Missing Value Source: NWS Daily Summary

Daily Weather History Graph

Daily Weather History Graph

Search for Another Location

Airport or City:

Trip Planner

Search our weather history database for the weather conditions in past years. The results will help you decide how hot, cold, wet, or windy it might be!

Date:

Astronomy

Nov. 16, 2012 Rise Set
Actual Time 6:59 AM MST 4:58 PM MST
Civil Twilight 6:30 AM MST 5:27 PM MST
Nautical Twilight 5:57 AM MST 5:59 PM MST
Astronomical Twilight 5:26 AM MST 6:31 PM MST
Moon 9:56 AM MST (11/16) 8:02 PM MST (11/16)
Length of Visible Light 10h 56m
Length of Day
9h 59m
Waxing Crescent, 12% of the Moon is Illuminated
Nov 16
Waxing Crescent
Nov 20
First Quarter
Nov 28
Full
Dec 6
Last Quarter
Dec 13
New

Hourly Weather History & Observations

Time (MST) Temp. Windchill Dew Point Humidity Pressure Visibility Wind Dir Wind Speed Gust Speed Precip Events Conditions
12:53 AM 30.0 °F 24.1 °F 25.0 °F 82% 30.27 in 10.0 mi SE 5.8 mph - N/A   Clear
1:53 AM 33.1 °F 27.7 °F 26.1 °F 75% 30.25 in 10.0 mi SE 5.8 mph - N/A   Clear
2:53 AM 32.0 °F 27.5 °F 26.1 °F 79% 30.24 in 10.0 mi East 4.6 mph - N/A   Clear
3:53 AM 33.1 °F 23.9 °F 26.1 °F 75% 30.22 in 10.0 mi ESE 12.7 mph - N/A   Clear
4:53 AM 35.1 °F 25.9 °F 25.0 °F 67% 30.21 in 10.0 mi East 13.8 mph - N/A   Clear
5:53 AM 34.0 °F 29.8 °F 26.1 °F 73% 30.24 in 10.0 mi ENE 4.6 mph - N/A   Clear
6:53 AM 32.0 °F 27.5 °F 24.1 °F 73% 30.26 in 10.0 mi NW 4.6 mph - N/A   Clear
7:53 AM 33.1 °F 26.9 °F 25.0 °F 72% 30.27 in 10.0 mi NNW 6.9 mph - N/A   Clear
8:53 AM 37.0 °F - 27.0 °F 67% 30.25 in 10.0 mi Calm Calm - N/A   Clear
9:53 AM 39.0 °F 36.8 °F 26.1 °F 60% 30.26 in 10.0 mi WNW 3.5 mph - N/A   Clear
10:53 AM 41.0 °F 38.0 °F 26.1 °F 55% 30.25 in 10.0 mi WNW 4.6 mph - N/A   Mostly Cloudy
11:53 AM 42.1 °F 40.2 °F 26.1 °F 53% 30.22 in 10.0 mi West 3.5 mph - N/A   Overcast
12:53 PM 44.1 °F - 25.0 °F 47% 30.19 in 10.0 mi Calm Calm - N/A   Mostly Cloudy
1:53 PM 46.0 °F - 25.0 °F 44% 30.16 in 10.0 mi Calm Calm - N/A   Mostly Cloudy
2:53 PM 46.9 °F - 23.0 °F 39% 30.14 in 10.0 mi SW 3.5 mph - N/A   Overcast
3:53 PM 46.9 °F - 25.0 °F 42% 30.14 in 10.0 mi SW 3.5 mph - N/A   Overcast
4:53 PM 46.9 °F - 25.0 °F 42% 30.12 in 10.0 mi Calm Calm - N/A   Overcast
5:53 PM 44.1 °F - 28.9 °F 55% 30.13 in 10.0 mi Calm Calm - N/A   Overcast
6:53 PM 42.1 °F 38.4 °F 30.9 °F 65% 30.15 in 10.0 mi NNE 5.8 mph - N/A   Overcast
7:53 PM 42.1 °F - 32.0 °F 67% 30.15 in 10.0 mi Calm Calm - N/A   Overcast
8:53 PM 42.1 °F 39.2 °F 32.0 °F 67% 30.17 in 10.0 mi North 4.6 mph - N/A   Overcast
9:53 PM 41.0 °F 35.2 °F 34.0 °F 76% 30.14 in 10.0 mi NNE 9.2 mph - 0.00 in   Overcast
10:53 PM 39.0 °F - 30.0 °F 70% 30.15 in 10.0 mi Calm Calm - N/A   Scattered Clouds
11:50 PM 39.2 °F 35.0 °F 32.0 °F 75% 30.18 in 10.0 mi NNE 5.8 mph - N/A   Overcast
11:53 PM 39.9 °F 36.7 °F 32.0 °F 73% 30.16 in 10.0 mi NE 4.6 mph - N/A   Overcast